DW7003 Weather Reports


time (UTC)temp
F
wind
direction
speed
knots
gust
knots
rain 1hr
in
rain 24hr
in
rain mn
in
humidity
%
barometer
mb
20260506211507 69 147 1.7 8.7 0.00 0.00 0.00 71 1006.9
20260506210006 69 133 0.0 8.7 0.00 0.00 0.00 73 1006.7
20260506204509 68 138 0.9 4.3 0.00 0.00 0.00 74 1006.8
20260506203004 68 140 0.0 7.0 0.00 0.00 0.00 75 1006.8
20260506201502 68 149 0.9 7.8 0.00 0.00 0.00 75 1007.0
20260506200004 68 139 2.6 8.7 0.00 0.00 0.00 75 1007.1
20260506194601 67 121 1.7 10.4 0.00 0.00 0.00 75 1007.3
20260506193059 67 117 1.7 7.8 0.00 0.00 0.00 75 1007.6
20260506191604 66 140 1.7 11.3 0.00 0.00 0.00 77 1007.5
20260506190158 66 113 2.6 13.0 0.00 0.00 0.00 78 1007.7
20260506184559 67 135 2.6 7.8 0.00 0.00 0.00 77 1007.7
20260506183103 69 142 2.6 11.3 0.00 0.00 0.00 72 1007.8
20260506181604 70 141 1.7 7.8 0.00 0.00 0.00 68 1007.7
20260506180052 70 129 0.0 7.8 0.00 0.00 0.00 68 1007.9
20260506174552 70 146 2.6 7.0 0.00 0.00 0.00 68 1008.1
20260506173116 70 143 0.0 7.8 0.00 0.00 0.00 69 1008.0
20260506171548 70 140 0.9 7.8 0.00 0.00 0.00 70 1008.3
20260506170103 70 142 2.6 8.7 0.00 0.00 0.00 69 1008.5
20260506164546 70 140 0.9 9.6 0.00 0.00 0.00 69 1009.0
20260506163052 70 139 0.9 11.3 0.00 0.00 0.00 68 1009.4
20260506161544 71 146 0.0 7.8 0.00 0.00 0.00 66 1009.6
20260506160044 72 146 1.7 8.7 0.00 0.00 0.00 60 1009.5
20260506154600 73 131 1.7 7.8 0.00 0.00 0.00 55 1009.4
20260506153034 73 136 3.5 11.3 0.00 0.00 0.00 56 1009.4
20260506151531 72 149 2.6 7.8 0.00 0.00 0.00 56 1009.6
20260506150030 72 125 1.7 13.9 0.00 0.00 0.00 56 1009.7
20260506144534 73 140 4.3 14.8 0.00 0.00 0.00 55 1009.6
20260506143028 72 103 2.6 8.7 0.00 0.00 0.00 56 1009.7
20260506141524 72 140 3.5 12.2 0.00 0.00 0.00 58 1009.6
20260506140024 72 151 1.7 9.6 0.00 0.00 0.00 61 1009.7
20260506134522 72 134 3.5 15.6 0.00 0.00 0.00 60 1009.9
20260506133018 71 136 4.3 9.6 0.00 0.00 0.00 62 1010.0
20260506131616 70 111 1.7 13.9 0.00 0.00 0.00 64 1010.3
20260506130011 69 134 4.3 12.2 0.00 0.00 0.00 67 1010.2
20260506124507 66 101 2.6 12.2 0.00 0.00 0.00 71 1010.2
20260506123003 66 134 1.7 12.2 0.00 0.00 0.00 72 1010.3
20260506121503 65 133 2.6 7.0 0.00 0.00 0.00 74 1010.4
20260506120001 64 134 2.6 11.3 0.00 0.00 0.00 74 1010.3
20260506114609 64 138 1.7 7.8 0.00 0.00 0.00 76 1010.4
20260506113056 62 136 2.6 9.6 0.00 0.00 0.00 77 1010.5
20260506111554 62 136 0.9 6.1 0.00 0.00 0.00 79 1010.6
20260506110053 61 141 3.5 8.7 0.00 0.00 0.00 80 1010.6
20260506104611 61 142 0.9 7.8 0.00 0.00 0.00 82 1010.4
20260506103048 60 145 0.9 8.7 0.00 0.00 0.00 82 1010.5
20260506101549 60 141 0.9 7.0 0.00 0.00 0.00 82 1010.3
20260506100046 61 140 1.7 9.6 0.00 0.00 0.00 82 1010.3
20260506094545 61 134 0.9 4.3 0.00 0.00 0.00 82 1010.3
20260506093044 61 138 0.9 7.8 0.00 0.00 0.00 82 1010.3
20260506091542 61 136 1.7 7.0 0.00 0.00 0.00 82 1010.3
20260506090046 61 143 0.9 7.8 0.00 0.00 0.00 82 1010.4
20260506084540 61 142 0.9 8.7 0.00 0.00 0.00 81 1010.5
20260506083043 61 146 0.0 7.0 0.00 0.00 0.00 81 1010.5
20260506081537 61 140 0.0 8.7 0.00 0.00 0.00 80 1010.6
20260506073031 63 141 3.5 8.7 0.00 0.00 0.00 78 1010.7
20260506071528 63 142 1.7 9.6 0.00 0.00 0.00 77 1010.7
20260506061524 64 133 0.9 7.0 0.00 0.00 0.00 76 1010.6
20260506044513 64 99 1.7 7.0 0.00 0.00 0.00 73 1011.2
20260506043014 65 140 0.9 7.0 0.00 0.00 0.00 72 1011.3
20260506041509 65 136 0.0 6.1 0.00 0.00 0.00 71 1011.2
20260506040008 65 138 3.5 9.6 0.00 0.00 0.00 70 1011.2
20260506034507 66 132 1.7 8.7 0.00 0.00 0.00 69 1011.2
20260506033006 66 137 1.7 11.3 0.00 0.00 0.00 68 1011.2
20260506031505 66 140 2.6 8.7 0.00 0.00 0.00 68 1011.2
20260506030005 66 140 2.6 13.9 0.00 0.00 0.00 68 1011.3
20260506024509 67 150 1.7 10.4 0.00 0.00 0.00 67 1011.3
20260506023002 67 146 2.6 11.3 0.00 0.00 0.00 67 1011.4
20260506021504 67 147 1.7 11.3 0.00 0.00 0.00 67 1011.5
20260506020001 67 138 3.5 10.4 0.00 0.00 0.00 66 1011.5
20260506014600 68 136 0.9 10.4 0.00 0.00 0.00 65 1011.4
20260506013059 68 130 3.5 10.4 0.00 0.00 0.00 63 1011.3
20260506011558 68 137 2.6 10.4 0.00 0.00 0.00 61 1011.2
20260506004558 69 130 3.5 13.9 0.00 0.00 0.00 59 1010.8
20260506003107 69 139 4.3 13.9 0.00 0.00 0.00 58 1010.7
20260506001611 70 144 1.7 12.2 0.00 0.00 0.00 57 1010.7
20260506000056 71 121 0.9 7.8 0.00 0.00 0.00 55 1010.5
20260505234611 71 133 2.6 11.3 0.00 0.00 0.00 54 1010.3
20260505233055 72 135 3.5 10.4 0.00 0.00 0.00 53 1010.3
20260505231554 73 132 0.9 11.3 0.00 0.00 0.00 51 1009.9
20260505230053 74 139 3.5 12.2 0.00 0.00 0.00 50 1009.8
20260505224553 74 142 2.6 9.6 0.00 0.00 0.00 50 1009.6
20260505223105 74 130 7.0 14.8 0.00 0.00 0.00 49 1009.6
20260505221551 75 127 2.6 12.2 0.00 0.00 0.00 48 1009.4
20260505220050 76 131 3.5 11.3 0.00 0.00 0.00 46 1009.2
20260505214557 77 141 2.6 12.2 0.00 0.00 0.00 45 1009.0
20260505213053 78 140 6.1 13.0 0.00 0.00 0.00 45 1008.9